Sisseton, SD

11:12 PM CST on December 10, 2016 (GMT -0600)
Sisseton

Weather History for K8D3 - July, 2013

Change the Weather History Date:

Monday, July 8, 2013

  Actual Average Record
Temperature  
Mean Temperature 72 °F 71 °F  
Max Temperature 86 °F 83 °F 105 °F (1936)
Min Temperature 57 °F 59 °F 44 °F (1953)
Degree Days  
Heating Degree Days 0 0  
Month to date heating degree days 0 3  
Since 1 June heating degree days 69 65  
Since 1 July heating degree days 0 3  
Cooling Degree Days 7 6  
Month to date cooling degree days 69 47  
Year to date cooling degree days 211 164  
Since 1 June cooling degree days 186 141  
Growing Degree Days 20 (Base 50)    
Moisture  
Dew Point 63 °F    
Average Humidity 73    
Maximum Humidity 97    
Minimum Humidity 48    
Precipitation  
Precipitation 0.00 in 0.12 in 1.67 in (1949)
Month to date precipitation 0.03 0.91  
Year to date precipitation 14.95 11.63  
Sea Level Pressure  
Sea Level Pressure 29.91 in    
Wind  
Wind Speed 3 mph (South)    
Max Wind Speed 12 mph    
Max Gust Speed 15 mph    
T = Trace of Precipitation, MM = Missing Value Source: NWS Daily Summary

Daily Weather History Graph

Daily Weather History Graph

Search for Another Location

Airport or City:

Trip Planner

Search our weather history database for the weather conditions in past years. The results will help you decide how hot, cold, wet, or windy it might be!

Date:

Astronomy

Jul. 08, 2013 Rise Set
Actual Time 5:47 AM CDT 9:18 PM CDT
Civil Twilight 5:10 AM CDT 9:55 PM CDT
Nautical Twilight 4:20 AM CDT 10:44 PM CDT
Astronomical Twilight 3:15 AM CDT 11:49 PM CDT
Moon 6:22 AM CDT (7/8) 9:15 PM CDT (7/8)
Length of Visible Light 16h 45m
Length of Day
15h 31m
New Moon, 0% of the Moon is Illuminated
Jul 8
New Moon
Jul 15
First Quarter
Jul 22
Full
Jul 29
Last Quarter
Aug 6
New

Hourly Weather History & Observations

Time (CDT) Temp. Heat Index Dew Point Humidity Pressure Visibility Wind Dir Wind Speed Gust Speed Precip Events Conditions
12:56 AM 61.0 °F - 59.0 °F 93% 29.93 in - Calm Calm - N/A   Unknown
1:56 AM 62.1 °F - 60.1 °F 93% 29.93 in - Calm Calm - N/A   Unknown
2:56 AM 62.1 °F - 59.0 °F 90% 29.92 in - Calm Calm - N/A   Unknown
3:56 AM 57.9 °F - 55.9 °F 93% 29.93 in - Calm Calm - N/A   Unknown
4:56 AM 57.9 °F - 55.9 °F 93% 29.93 in - Calm Calm - N/A   Unknown
5:56 AM 57.0 °F - 55.9 °F 96% 29.93 in - WNW 3.5 mph - N/A   Unknown
6:56 AM 63.0 °F - 60.1 °F 90% 29.93 in - Calm Calm - N/A   Unknown
7:56 AM 69.1 °F - 63.0 °F 81% 29.95 in - Calm Calm - N/A   Unknown
8:56 AM 72.0 °F - 63.0 °F 73% 29.96 in - Calm Calm - N/A   Unknown
9:56 AM 75.0 °F - 64.0 °F 69% 29.95 in - Calm Calm - N/A   Unknown
10:56 AM 77.0 °F - 64.0 °F 64% 29.96 in - SSE 3.5 mph - N/A   Unknown
11:56 AM 79.0 °F - 64.0 °F 60% 29.95 in - South 8.1 mph - N/A   Unknown
12:56 PM 81.0 °F 81.9 °F 62.1 °F 52% 29.94 in - South 9.2 mph - N/A   Unknown
1:56 PM 82.9 °F 84.0 °F 63.0 °F 51% 29.93 in - South 8.1 mph - N/A   Unknown
2:56 PM 84.9 °F 85.4 °F 62.1 °F 46% 29.92 in - SSW 5.8 mph - N/A   Unknown
3:56 PM 82.9 °F 84.4 °F 64.0 °F 53% 29.92 in - South 6.9 mph - N/A   Unknown
4:56 PM 84.9 °F 86.6 °F 64.9 °F 51% 29.90 in - South 8.1 mph - N/A   Unknown
5:56 PM 82.9 °F 84.6 °F 64.9 °F 54% 29.89 in - SSE 4.6 mph - N/A   Unknown
6:56 PM 82.0 °F 84.9 °F 68.0 °F 62% 29.87 in - ESE 3.5 mph - N/A   Unknown
7:56 PM 82.0 °F 84.5 °F 66.9 °F 60% 29.85 in - SSE 5.8 mph - N/A   Unknown
8:56 PM 78.1 °F - 68.0 °F 71% 29.84 in - SE 3.5 mph - N/A   Unknown
9:56 PM 73.9 °F - 68.0 °F 82% 29.86 in - Calm Calm - N/A   Unknown
10:56 PM 73.0 °F - 68.0 °F 84% 29.87 in - Calm Calm - N/A   Unknown
11:56 PM 72.0 °F - 68.0 °F 87% 29.86 in - South 3.5 mph - N/A   Unknown